Tracking 28790 objects as of 19-Apr-2024
HD Live streaming from Space Station
objects crossing your sky now

COSMOS 482 DESCENT CRAFT

Track COSMOS 482 DESCENT CRAFT now!
10-day predictions
COSMOS 482 DESCENT CRAFT is classified as:


NORAD ID: 6073
Int'l Code: 1972-023E
Perigee: 195.9 km
Apogee: 1,258.0 km
Inclination: 52.0 °
Period: 99.2 minutes
Semi major axis: 7097 km
RCS: 0.7153 m2 (medium)
Launch date: March 31, 1972
Source: Commonwealth of Independent States (former USSR) (CIS)
Launch site: TYURATAM MISSILE AND SPACE COMPLEX (TTMTR)
Your satellite tracking list
Your tracking list is empty




NASA's NSSDC Master Catalog

Two Line Element Set (TLE):
1  6073U 72023E   24110.14042080  .00091973  77497-5  17643-3 0  9999
2  6073  52.0020 238.7599 0748168 237.0871 115.5970 14.51800047693020
Source of the keplerian elements: AFSPC